Location: McNierney
(34.1937°N, 106.9061°W)
Time: 22:21:48
(UTC+00:00)

IRS-1D - Pass Details

Date: 11 December 2025
Orbit: 737 x 810 km, 98.8° (Epoch: 21 January)

Event Time Altitude Azimuth Distance (km) Brightness Sun altitude
Rises 12:17:07 0° 9° (N) 3,211 6.7 -21.4°
Reaches altitude 10° 12:19:24 10° 7° (N) 2,293 5.9 -20.9°
Maximum altitude 12:24:24 67° 286° (WNW) 835 3.4 -19.9°
Drops below altitude 10° 12:29:29 10° 204° (SSW) 2,326 5.9 -18.9°
Sets 12:31:50 0° 202° (SSW) 3,262 6.7 -18.5°
